Location: Clairmont
(55.2667°N, 118.8000°W)
Time: 14:38:50
(UTC+00:00)

Envisat - Pass Details

Date: 03 November 2020
Orbit: 764 x 766 km, 98.1° (Epoch: 03 December)

Event Time Altitude Azimuth Distance (km) Brightness Sun altitude
Rises 12:37:39 0° 24° (NNE) 3,247 6.6 -21.2°
Reaches altitude 10° 12:40:43 10° 43° (NE) 2,315 6.1 -20.8°
Maximum altitude 12:44:10 18° 86° (E) 1,816 5.9 -20.3°
Drops below altitude 10° 12:47:36 10° 129° (SE) 2,302 6.2 -19.8°
Sets 12:50:37 0° 148° (SSE) 3,222 6.7 -19.4°
